| time (UTC) | temp F | wind direction | speed MPH | gust MPH | rain 1hr in | rain 24hr in | rain mn in | humidity % | barometer mb |
| 20260504200003 | 38 | 281 | 0.0 | 0.0 | 0.13 | 0.38 | 0.20 | 91 | 1008.8 |
| 20260504194611 | 39 | 281 | 0.0 | 1.0 | 0.07 | 0.31 | 0.13 | 92 | 1008.6 |
| 20260504193109 | 39 | 22 | 0.0 | 1.0 | 0.03 | 0.26 | 0.08 | 92 | 1008.2 |
| 20260504191604 | 39 | 240 | 0.0 | 1.0 | 0.02 | 0.25 | 0.07 | 93 | 1008.1 |
| 20260504190114 | 40 | 252 | 0.0 | 0.0 | 0.03 | 0.25 | 0.07 | 93 | 1008.0 |
| 20260504184620 | 40 | 242 | 0.0 | 0.0 | 0.02 | 0.24 | 0.06 | 92 | 1008.1 |
| 20260504183054 | 40 | 208 | 0.0 | 0.0 | 0.01 | 0.23 | 0.05 | 91 | 1008.2 |
| 20260504181552 | 40 | 207 | 0.0 | 0.0 | 0.02 | 0.23 | 0.05 | 92 | 1007.8 |
| 20260504180053 | 40 | 207 | 0.0 | 0.0 | 0.01 | 0.22 | 0.04 | 92 | 1007.8 |
| 20260504174550 | 40 | 222 | 0.0 | 0.0 | 0.01 | 0.22 | 0.04 | 92 | 1007.8 |
| 20260504173048 | 39 | 219 | 0.0 | 0.0 | 0.02 | 0.22 | 0.04 | 93 | 1007.5 |
| 20260504171550 | 39 | 239 | 0.0 | 0.0 | 0.02 | 0.21 | 0.03 | 92 | 1007.5 |
| 20260504081509 | 37 | 117 | 0.0 | 0.0 | 0.00 | 0.21 | 0.00 | 89 | 1007.1 |
| 20260504060105 | 36 | 212 | 0.0 | 0.0 | 0.00 | 0.21 | 0.21 | 88 | 1006.8 |
| 20260504044552 | 38 | 195 | 0.0 | 0.0 | 0.00 | 0.21 | 0.21 | 89 | 1006.8 |
| 20260504043051 | 38 | 198 | 0.0 | 0.0 | 0.00 | 0.21 | 0.21 | 91 | 1007.0 |
| 20260504041550 | 39 | 198 | 0.0 | 1.0 | 0.00 | 0.21 | 0.21 | 91 | 1006.8 |
| 20260504040050 | 39 | 222 | 0.0 | 0.0 | 0.00 | 0.21 | 0.21 | 91 | 1007.1 |
| 20260504034548 | 39 | 229 | 0.0 | 0.0 | 0.00 | 0.23 | 0.21 | 90 | 1006.8 |
| 20260504033053 | 39 | 231 | 0.0 | 0.0 | 0.00 | 0.23 | 0.21 | 90 | 1006.7 |
| 20260504031558 | 39 | 228 | 0.0 | 0.0 | 0.00 | 0.23 | 0.21 | 89 | 1006.3 |
| 20260504030050 | 40 | 217 | 0.0 | 0.0 | 0.00 | 0.23 | 0.21 | 85 | 1006.1 |
| 20260504024557 | 40 | 214 | 0.0 | 0.0 | 0.00 | 0.24 | 0.21 | 87 | 1006.0 |
| 20260504023047 | 41 | 277 | 0.0 | 0.0 | 0.00 | 0.24 | 0.21 | 86 | 1006.1 |
| 20260504021552 | 41 | 201 | 0.0 | 0.0 | 0.00 | 0.24 | 0.21 | 87 | 1006.3 |
| 20260504020049 | 42 | 215 | 0.0 | 0.0 | 0.00 | 0.24 | 0.21 | 89 | 1006.5 |
| 20260504014545 | 42 | 216 | 0.0 | 0.0 | 0.00 | 0.31 | 0.21 | 87 | 1006.4 |
| 20260504013049 | 43 | 215 | 0.0 | 0.0 | 0.00 | 0.31 | 0.21 | 85 | 1006.4 |
| 20260504011544 | 43 | 270 | 0.0 | 0.0 | 0.00 | 0.31 | 0.21 | 88 | 1006.2 |
| 20260504010044 | 44 | 113 | 0.0 | 0.0 | 0.00 | 0.31 | 0.21 | 89 | 1005.7 |
| 20260504004558 | 43 | 113 | 0.0 | 0.0 | 0.00 | 0.31 | 0.21 | 89 | 1005.6 |
| 20260504003042 | 42 | 113 | 0.0 | 0.0 | 0.00 | 0.31 | 0.21 | 91 | 1006.0 |
| 20260504001543 | 40 | 115 | 0.0 | 0.0 | 0.02 | 0.31 | 0.21 | 90 | 1006.5 |
| 20260504000042 | 39 | 273 | 0.0 | 0.0 | 0.02 | 0.31 | 0.21 | 90 | 1007.0 |
| 20260503234540 | 38 | 203 | 0.0 | 0.0 | 0.03 | 0.31 | 0.21 | 91 | 1007.3 |
| 20260503233040 | 37 | 274 | 0.0 | 0.0 | 0.05 | 0.31 | 0.21 | 91 | 1007.7 |
| 20260503231540 | 37 | 210 | 0.0 | 0.0 | 0.06 | 0.28 | 0.19 | 91 | 1008.0 |
| 20260503230037 | 38 | 284 | 0.0 | 1.0 | 0.11 | 0.28 | 0.19 | 92 | 1007.9 |
| 20260503224536 | 38 | 210 | 0.0 | 2.0 | 0.14 | 0.28 | 0.18 | 92 | 1008.0 |
| 20260503223035 | 38 | 257 | 0.0 | 6.0 | 0.13 | 0.26 | 0.16 | 90 | 1008.5 |
| 20260503221531 | 38 | 198 | 0.0 | 1.0 | 0.10 | 0.23 | 0.13 | 88 | 1008.4 |
| 20260503220032 | 40 | 239 | 0.0 | 2.0 | 0.05 | 0.18 | 0.08 | 85 | 1007.9 |
| 20260503214524 | 42 | 274 | 0.0 | 2.0 | 0.01 | 0.14 | 0.04 | 79 | 1007.0 |
| 20260503213027 | 45 | 264 | 0.0 | 4.0 | 0.00 | 0.13 | 0.03 | 71 | 1006.5 |
| 20260503211534 | 50 | 183 | 2.0 | 7.0 | 0.00 | 0.13 | 0.03 | 59 | 1006.6 |
| 20260503210021 | 57 | 290 | 1.0 | 6.0 | 0.00 | 0.13 | 0.03 | 36 | 1005.6 |
| 20260503204520 | 57 | 207 | 0.0 | 6.0 | 0.00 | 0.13 | 0.03 | 41 | 1004.3 |
| 20260503203021 | 58 | 273 | 0.0 | 2.0 | 0.00 | 0.13 | 0.03 | 37 | 1004.4 |
| 20260503201516 | 59 | 252 | 0.0 | 4.0 | 0.00 | 0.13 | 0.03 | 36 | 1004.6 |